Location: Gwatt
(46.7204°N, 7.6223°E)
Time: 20:04:20
(UTC+00:00)

Transit 2A - Pass Details

Date: 26 January 2021
Orbit: 600 x 958 km, 66.7° (Epoch: 26 February)

Event Time Altitude Azimuth Distance (km) Brightness Sun altitude
Rises 04:44:03 0° 256° (WSW) 3,425 - -23.3°
Reaches altitude 10° 04:47:10 10° 271° (W) 2,427 - -22.8°
Maximum altitude 04:51:27 22° 321° (NW) 1,646 - -22.0°
Exits shadow 04:52:36 21° 340° (NNW) 1,689 7.5 -21.8°
Drops below altitude 10° 04:55:27 10° 12° (NNE) 2,245 8.5 -21.4°
Sets 04:58:13 0° 28° (NNE) 3,104 9.5 -20.9°
